This demonstration page uses our WeatherBlox Daily Observations layout. Learn more.

41.55636, -103.73856

Hourly Observations for December 1, 2019

Temp ( °F °C ) Dew Point ( °F °C ) Humidity (%) Winds ( mph kmh ) Pressure ( in mb ) Visibility ( mi km ) Precip ( " mm )
12:58 am 00:58 Partly Cloudy with Light Snow Showers 20 -6.9 17 -8.3 90 90 Calm 29.98 1015 7 11.26538 0 0
1:58 am 01:58 Partly Cloudy with Scattered Snow Showers 19 -7 17 -8.6 89 89 NW 38 61 30.02 1017 1 1.60934 0 0
2:58 am 02:58 Mostly Cloudy 20 -6.7 17 -8.5 87 87 NW 36 57 N/A N/A 0 0
3:58 am 03:58 undefined 21 -6.3 16 -8.8 83 83 NNW 31 50 30.08 1019 N/A 0 0
4:58 am 04:58 Mostly Cloudy 21 -6.2 15 -9.3 79 79 NNW 22 35 30.14 1021 10 16.0934 0 0
5:58 am 05:58 Mostly Cloudy 21 -5.9 15 -9.6 75 75 NNW 25 41 30.14 1021 10 16.0934 0 0
6:58 am 06:58 Cloudy 21 -6.1 14 -9.8 75 75 NNW 18 30 30.16 1021 10 16.0934 0 0
7:58 am 07:58 Mostly Cloudy 20 -6.8 14 -10.2 77 77 NNW 16 26 30.16 1021 10 16.0934 0 0
8:58 am 08:58 Mostly Clear 17 -8.3 13 -10.5 84 84 NW 12 19 30.2 1023 10 16.0934 0 0
9:58 am 09:58 Mostly Clear 17 -8.4 11 -11.4 79 79 NW 17 28 30.21 1023 10 16.0934 0 0
10:58 am 10:58 Clear 17 -8.6 11 -11.9 77 77 NNW 16 26 30.22 1023 10 16.0934 0 0
11:58 am 11:58 Clear 15 -9.7 9 -12.8 78 78 WNW 14 22 30.25 1025 10 16.0934 0 0
12:58 pm 12:58 Clear 16 -8.9 9 -12.7 74 74 WNW 14 22 30.27 1025 10 16.0934 0 0
1:58 pm 13:58 Clear 16 -9.1 8 -13.3 72 72 WNW 14 22 30.29 1026 10 16.0934 0 0
2:58 pm 14:58 Sunny 13 -10.8 7 -13.8 79 79 W 8 13 30.33 1027 10 16.0934 0 0
3:58 pm 15:58 Sunny 18 -7.8 10 -12.4 70 70 WSW 3 6 30.32 1027 10 16.0934 0 0
4:58 pm 16:58 Sunny 19 -7.2 12 -10.9 75 75 W 10 17 30.33 1027 10 16.0934 0 0
5:58 pm 17:58 Sunny 23 -4.9 15 -9.3 72 72 W 6 9 30.3 1026 10 16.0934 0 0
6:58 pm 18:58 Sunny 26 -3.1 18 -8 69 69 WSW 5 7 30.3 1026 10 16.0934 0.01 0.254
7:58 pm 19:58 Sunny 28 -2.5 17 -8.3 65 65 W 5 7 30.27 1025 10 16.0934 0 0
8:58 pm 20:58 Sunny 29 -1.8 18 -7.6 65 65 W 3 6 30.28 1025 10 16.0934 0 0
9:58 pm 21:58 Sunny 29 -1.4 19 -7.2 65 65 W 7 11 30.29 1026 10 16.0934 0 0
10:58 pm 22:58 Sunny 29 -1.6 17 -8.2 61 61 W 3 6 30.29 1026 10 16.0934 0 0
11:58 pm 23:58 Clear 25 -3.9 14 -10.1 62 62 SW 3 6 30.31 1027 10 16.0934 0 0

Powered by AerisWeather